EW9755 Weather Reports


time (UTC)temp
C
wind
direction
speed
KPH
gust
KPH
rain 1hr
cm
rain 24hr
cm
rain mn
cm
humidity
%
barometer
mb
20260504150540 23 147 25.7 35.4 0.00 0.00 0.00 63 1016.5
20260504140540 22 146 24.1 32.2 0.00 0.00 0.00 63 1016.1
20260504130540 22 130 19.3 27.4 0.00 0.00 0.00 63 1016.1
20260504130109 22 137 14.5 29.0 0.00 0.00 0.00 64 1016.1
20260504110540 21 132 16.1 27.4 0.00 0.00 0.00 61 1015.8
20260504110110 21 134 20.9 27.4 0.00 0.00 0.00 61 1015.8
20260504100540 21 133 17.7 22.5 0.00 0.00 0.00 59 1016.1
20260504090112 21 129 17.7 24.1 0.00 0.00 0.00 55 1016.1
20260504081900 21 131 19.3 25.7 0.00 0.00 0.00 54 1016.8
20260504081220 21 133 19.3 25.7 0.00 0.00 0.00 52 1016.8
20260504080542 21 127 20.9 25.7 0.00 0.00 0.00 51 1016.8
20260504070113 21 127 20.9 29.0 0.00 0.00 0.00 49 1017.8
20260504050540 21 123 20.9 29.0 0.00 0.00 0.00 48 1018.8
20260504045901 21 126 17.7 29.0 0.00 0.00 0.00 50 1018.8
20260504045222 21 126 20.9 27.4 0.00 0.00 0.00 49 1019.2
20260504044540 21 117 22.5 25.7 0.00 0.00 0.00 46 1019.2
20260504044111 21 125 19.3 30.6 0.00 0.00 0.00 48 1019.2
20260504043220 22 121 19.3 27.4 0.00 0.00 0.00 47 1019.2
20260504042540 21 124 19.3 29.0 0.00 0.00 0.00 45 1019.2
20260504041900 22 124 24.1 29.0 0.00 0.00 0.00 45 1019.2
20260504041220 22 123 22.5 27.4 0.00 0.00 0.00 46 1019.2
20260504040540 21 114 19.3 27.4 0.00 0.00 0.00 46 1018.8
20260504035901 21 112 14.5 22.5 0.00 0.00 0.00 48 1019.2
20260504035430 21 93 12.9 22.5 0.00 0.00 0.00 48 1018.8
20260504034540 21 98 11.3 22.5 0.00 0.00 0.00 47 1019.2
20260504034112 21 103 14.5 22.5 0.00 0.00 0.00 48 1019.2
20260504033220 21 97 14.5 24.1 0.00 0.00 0.00 48 1018.8
20260504032753 21 92 17.7 24.1 0.00 0.00 0.00 46 1018.8
20260504032114 21 93 12.9 22.5 0.00 0.00 0.00 47 1018.8
20260504031220 21 91 14.5 25.7 0.00 0.00 0.00 47 1018.8
20260504030540 21 110 14.5 20.9 0.00 0.00 0.00 46 1018.8
20260504025900 21 119 16.1 20.9 0.00 0.00 0.00 46 1018.8
20260504025220 21 95 14.5 22.5 0.00 0.00 0.00 48 1018.8
20260504024540 21 85 14.5 22.5 0.00 0.00 0.00 45 1019.2
20260504023900 21 102 9.7 20.9 0.00 0.00 0.00 48 1018.8
20260504023220 21 88 12.9 20.9 0.00 0.00 0.00 47 1018.8
20260504022540 21 114 14.5 19.3 0.00 0.00 0.00 47 1018.8
20260504021900 21 98 11.3 22.5 0.00 0.00 0.00 47 1018.8
20260504021219 22 102 12.9 22.5 0.00 0.00 0.00 46 1018.8
20260504020539 21 112 12.9 20.9 0.00 0.00 0.00 46 1018.8
20260504015859 22 106 14.5 20.9 0.00 0.00 0.00 47 1018.8
20260504015219 22 118 16.1 20.9 0.00 0.00 0.00 45 1018.8
20260504014539 21 96 12.9 19.3 0.00 0.00 0.00 44 1019.2
20260504013859 21 113 14.5 17.7 0.00 0.00 0.00 44 1018.8
20260504013428 22 109 12.9 19.3 0.00 0.00 0.00 44 1019.2
20260504012539 22 110 14.5 19.3 0.00 0.00 0.00 45 1018.8
20260504012110 22 98 12.9 20.9 0.00 0.00 0.00 46 1018.8
20260504011219 21 87 12.9 17.7 0.00 0.00 0.00 46 1018.8
20260504010539 21 78 11.3 19.3 0.00 0.00 0.00 44 1018.8
20260504005859 22 69 12.9 22.5 0.00 0.00 0.00 44 1018.8
20260504005432 22 86 14.5 22.5 0.00 0.00 0.00 43 1018.8
20260504004539 22 74 9.7 17.7 0.00 0.00 0.00 41 1018.8
20260504004108 22 69 12.9 22.5 0.00 0.00 0.00 43 1018.8
20260504003219 22 79 11.3 22.5 0.00 0.00 0.00 44 1018.8
20260504002539 22 76 12.9 20.9 0.00 0.00 0.00 44 1018.5
20260504001859 22 74 11.3 17.7 0.00 0.00 0.00 46 1018.8
20260504001219 22 86 11.3 17.7 0.00 0.00 0.00 46 1018.8
20260504000540 22 75 9.7 20.9 0.00 0.00 0.00 44 1018.8
20260503235859 22 89 12.9 19.3 0.00 0.00 0.00 45 1018.8
20260503235219 22 90 12.9 19.3 0.00 0.00 0.00 45 1018.8
20260503234541 22 86 9.7 24.1 0.00 0.00 0.00 44 1019.2
20260503234109 22 58 14.5 22.5 0.00 0.00 0.00 47 1018.8
20260503233220 22 82 11.3 20.9 0.00 0.00 0.00 46 1019.2
20260503232539 22 81 8.0 20.9 0.00 0.00 0.00 44 1019.2
20260503231859 22 95 12.9 22.5 0.00 0.00 0.00 44 1019.2
20260503231219 22 75 16.1 22.5 0.00 0.00 0.00 44 1019.2
20260503230539 22 74 11.3 19.3 0.00 0.00 0.00 44 1019.5
20260503225859 22 83 9.7 19.3 0.00 0.00 0.00 44 1019.5
20260503225219 22 77 9.7 19.3 0.00 0.00 0.00 44 1019.5
20260503224539 23 91 9.7 20.9 0.00 0.00 0.00 43 1019.8
20260503223901 22 125 14.5 20.9 0.00 0.00 0.00 43 1019.8
20260503223219 23 84 12.9 20.9 0.00 0.00 0.00 43 1019.8
20260503222539 23 71 11.3 19.3 0.00 0.00 0.00 43 1019.8
20260503221859 22 127 9.7 22.5 0.00 0.00 0.00 44 1019.8
20260503221219 22 125 17.7 22.5 0.00 0.00 0.00 42 1019.8
20260503220753 22 125 17.7 22.5 0.00 0.00 0.00 42 1019.8
20260503215859 22 127 11.3 25.7 0.00 0.00 0.00 44 1020.2
20260503215219 22 115 17.7 25.7 0.00 0.00 0.00 42 1020.2
20260503214539 23 100 11.3 17.7 0.00 0.00 0.00 41 1020.2
20260503213859 22 73 14.5 19.3 0.00 0.00 0.00 43 1020.2
20260503213219 23 87 9.7 20.9 0.00 0.00 0.00 43 1020.2
20260503212539 23 97 16.1 25.7 0.00 0.00 0.00 42 1020.5
20260503212112 22 123 14.5 25.7 0.00 0.00 0.00 42 1020.5
20260503211219 22 127 17.7 24.1 0.00 0.00 0.00 42 1020.5
20260503210748 23 127 9.7 25.7 0.00 0.00 0.00 42 1020.5
20260503205859 23 93 14.5 22.5 0.00 0.00 0.00 41 1020.9
20260503205219 23 112 14.5 20.9 0.00 0.00 0.00 43 1020.9
20260503204751 22 48 6.4 20.9 0.00 0.00 0.00 43 1020.9
20260503203859 23 79 12.9 20.9 0.00 0.00 0.00 41 1020.9
20260503203219 22 59 9.7 22.5 0.00 0.00 0.00 43 1021.2
20260503202539 23 64 8.0 22.5 0.00 0.00 0.00 42 1021.2
20260503202113 23 92 12.9 25.7 0.00 0.00 0.00 43 1021.2
20260503201219 22 67 11.3 25.7 0.00 0.00 0.00 44 1021.5
20260503200749 22 62 14.5 25.7 0.00 0.00 0.00 44 1021.5
20260503200110 23 81 12.9 24.1 0.00 0.00 0.00 44 1021.5
20260503195220 22 91 17.7 22.5 0.00 0.00 0.00 43 1021.5
20260503194539 22 97 12.9 22.5 0.00 0.00 0.00 43 1021.5
20260503193859 22 81 4.8 20.9 0.00 0.00 0.00 43 1021.5
20260503193219 22 84 9.7 20.9 0.00 0.00 0.00 42 1021.9
20260503192540 22 51 16.1 25.7 0.00 0.00 0.00 42 1021.9
20260503191900 22 109 14.5 27.4 0.00 0.00 0.00 42 1021.9
20260503191219 22 98 17.7 27.4 0.00 0.00 0.00 42 1022.2
20260503190539 23 103 14.5 25.7 0.00 0.00 0.00 40 1022.2
20260503185859 23 98 6.4 22.5 0.00 0.00 0.00 40 1022.2
20260503185219 22 58 11.3 25.7 0.00 0.00 0.00 42 1022.2
20260503184752 22 65 12.9 24.1 0.00 0.00 0.00 42 1022.2
20260503183859 22 102 14.5 24.1 0.00 0.00 0.00 39 1022.6
20260503183219 23 94 12.9 24.1 0.00 0.00 0.00 40 1022.6
20260503182539 23 90 11.3 22.5 0.00 0.00 0.00 39 1022.6
20260503182109 23 60 14.5 24.1 0.00 0.00 0.00 39 1022.6
20260503181220 22 103 17.7 24.1 0.00 0.00 0.00 38 1022.9
20260503180539 22 67 12.9 20.9 0.00 0.00 0.00 40 1022.9
20260503175859 23 64 12.9 19.3 0.00 0.00 0.00 39 1022.9
20260503175219 22 71 11.3 22.5 0.00 0.00 0.00 39 1023.2
20260503174539 22 60 16.1 22.5 0.00 0.00 0.00 40 1023.2
20260503173859 22 62 14.5 19.3 0.00 0.00 0.00 42 1023.2
20260503173219 23 95 14.5 22.5 0.00 0.00 0.00 40 1023.2
20260503172749 22 58 17.7 22.5 0.00 0.00 0.00 40 1023.2
20260503172110 22 73 11.3 22.5 0.00 0.00 0.00 40 1023.6
20260503171219 23 93 12.9 22.5 0.00 0.00 0.00 41 1023.6
20260503170539 22 74 9.7 20.9 0.00 0.00 0.00 39 1023.6